Time,TemperatureF,DewpointF,PressureIn,WindDirection,WindDirectionDegrees,WindSpeedMPH,WindSpeedGustMPH,Humidity,HourlyPrecipIn,Conditions,Clouds,dailyrainin,SoftwareType,DateUTC
2013-11-04 00:21:00,57.0,39.0,29.71,SSW,194,0.0,0.0,50,0.00,,,0.00,,2013-11-04 07:21:00,
2013-11-04 00:42:00,57.0,39.0,29.71,SSE,156,0.0,0.0,50,0.00,,,0.00,,2013-11-04 07:42:00,
2013-11-04 00:52:00,56.0,38.0,29.71,SSE,156,0.0,0.0,50,0.00,,,0.00,,2013-11-04 07:52:00,
2013-11-04 01:21:00,56.0,40.0,29.71,SE,137,0.0,0.0,54,0.00,,,0.00,,2013-11-04 08:21:00,
2013-11-04 01:42:00,55.0,39.0,29.71,West,272,1.0,1.0,54,0.00,,,0.00,,2013-11-04 08:42:00,
2013-11-04 01:52:00,56.0,40.0,29.70,South,176,0.0,0.0,54,0.00,,,0.00,,2013-11-04 08:52:00,
2013-11-04 02:21:00,54.0,39.0,29.70,SSE,159,0.0,0.0,57,0.00,,,0.00,,2013-11-04 09:21:00,
2013-11-04 02:43:00,54.0,40.0,29.70,SSE,159,0.0,0.0,58,0.00,,,0.00,,2013-11-04 09:43:00,
2013-11-04 02:53:00,53.0,39.0,29.69,SSE,159,0.0,0.0,60,0.00,,,0.00,,2013-11-04 09:53:00,
2013-11-04 03:23:00,52.0,40.0,29.69,NNE,28,2.0,2.0,63,0.00,,,0.00,,2013-11-04 10:23:00,
2013-11-04 03:42:00,52.0,40.0,29.69,NE,36,0.0,0.0,64,0.00,,,0.00,,2013-11-04 10:42:00,
2013-11-04 03:52:00,52.0,40.0,29.69,NE,36,0.0,0.0,64,0.00,,,0.00,,2013-11-04 10:52:00,
2013-11-04 04:22:00,51.0,40.0,29.69,NE,36,0.0,0.0,65,0.00,,,0.00,,2013-11-04 11:22:00,
2013-11-04 04:42:00,51.0,40.0,29.69,NE,36,0.0,0.0,66,0.00,,,0.00,,2013-11-04 11:42:00,
2013-11-04 04:52:00,50.0,41.0,29.69,NE,36,0.0,0.0,71,0.00,,,0.00,,2013-11-04 11:52:00,
2013-11-04 05:21:00,50.0,41.0,29.70,NE,36,0.0,0.0,71,0.00,,,0.00,,2013-11-04 12:21:00,
2013-11-04 05:52:00,49.0,40.0,29.70,NNE,24,1.0,2.0,71,0.00,,,0.00,,2013-11-04 12:52:00,
2013-11-04 06:21:00,49.0,41.0,29.70,NNE,33,0.0,0.0,73,0.00,,,0.00,,2013-11-04 13:21:00,
2013-11-04 06:42:00,49.0,41.0,29.70,East,90,2.0,3.0,73,0.00,,,0.00,,2013-11-04 13:42:00,
2013-11-04 06:52:00,50.0,41.0,29.71,ESE,108,0.0,2.0,71,0.00,,,0.00,,2013-11-04 13:52:00,
2013-11-04 07:11:00,50.0,40.0,29.71,East,82,0.0,0.0,69,0.00,,,0.00,,2013-11-04 14:11:00,
2013-11-04 07:21:00,50.0,41.0,29.71,NW,326,1.0,2.0,70,0.00,,,0.00,,2013-11-04 14:21:00,
2013-11-04 07:42:00,50.0,40.0,29.72,NNW,332,0.0,1.0,69,0.00,,,0.00,,2013-11-04 14:42:00,
2013-11-04 07:52:00,52.0,41.0,29.72,NE,50,0.0,0.0,65,0.00,,,0.00,,2013-11-04 14:52:00,
2013-11-04 08:21:00,56.0,41.0,29.74,NNE,26,1.0,1.0,58,0.00,,,0.00,,2013-11-04 15:21:00,
2013-11-04 08:41:00,57.0,42.0,29.74,NNE,27,0.0,0.0,57,0.00,,,0.00,,2013-11-04 15:41:00,
2013-11-04 08:52:00,60.0,49.0,29.75,NW,314,0.0,1.0,67,0.00,,,0.00,,2013-11-04 15:52:00,
2013-11-04 10:53:00,74.0,59.0,29.76,South,191,2.0,5.0,59,0.00,,,0.00,,2013-11-04 17:53:00,
2013-11-04 11:22:00,77.0,48.0,29.76,WSW,249,2.0,4.0,36,0.00,,,0.00,,2013-11-04 18:22:00,
2013-11-04 11:42:00,76.0,46.0,29.76,NW,304,3.0,4.0,35,0.00,,,0.00,,2013-11-04 18:42:00,
2013-11-04 11:52:00,76.0,47.0,29.75,WSW,239,2.0,5.0,36,0.00,,,0.00,,2013-11-04 18:52:00,
2013-11-04 12:22:00,77.0,46.0,29.73,NNW,336,1.0,3.0,33,0.00,,,0.00,,2013-11-04 19:22:00,
2013-11-04 12:42:00,77.0,44.0,29.72,WNW,296,0.0,1.0,31,0.00,,,0.00,,2013-11-04 19:42:00,
2013-11-04 12:52:00,77.0,46.0,29.71,NW,309,2.0,5.0,33,0.00,,,0.00,,2013-11-04 19:52:00,
2013-11-04 13:22:00,80.0,40.0,29.70,WSW,237,5.0,5.0,24,0.00,,,0.00,,2013-11-04 20:22:00,
2013-11-04 13:42:00,79.0,37.0,29.70,West,275,1.0,2.0,22,0.00,,,0.00,,2013-11-04 20:42:00,
2013-11-04 13:52:00,79.0,39.0,29.69,SW,236,5.0,8.0,24,0.00,,,0.00,,2013-11-04 20:52:00,
2013-11-04 14:21:00,79.0,39.0,29.68,West,274,4.0,9.0,24,0.00,,,0.00,,2013-11-04 21:21:00,
2013-11-04 14:44:00,78.0,38.0,29.67,WSW,256,8.0,11.0,24,0.00,,,0.00,,2013-11-04 21:44:00,
2013-11-04 14:54:00,78.0,39.0,29.67,NNW,331,5.0,12.0,25,0.00,,,0.00,,2013-11-04 21:54:00,
2013-11-04 15:23:00,77.0,36.0,29.67,NW,307,2.0,3.0,23,0.00,,,0.00,,2013-11-04 22:23:00,
2013-11-04 15:43:00,77.0,36.0,29.67,WNW,298,2.0,5.0,23,0.00,,,0.00,,2013-11-04 22:43:00,
2013-11-04 15:53:00,78.0,36.0,29.67,NW,324,4.0,7.0,22,0.00,,,0.00,,2013-11-04 22:53:00,
2013-11-04 16:12:00,78.0,36.0,29.67,NW,306,5.0,8.0,22,0.00,,,0.00,,2013-11-04 23:12:00,
2013-11-04 16:22:00,78.0,36.0,29.68,NW,320,3.0,11.0,22,0.00,,,0.00,,2013-11-04 23:22:00,
2013-11-04 16:43:00,78.0,36.0,29.68,NW,315,7.0,10.0,22,0.00,,,0.00,,2013-11-04 23:43:00,
2013-11-04 16:53:00,77.0,39.0,29.68,WNW,284,4.0,8.0,26,0.00,,,0.00,,2013-11-04 23:53:00,
2013-11-04 17:22:00,75.0,39.0,29.68,West,273,6.0,11.0,27,0.00,,,0.00,,2013-11-05 00:22:00,
2013-11-04 17:42:00,75.0,39.0,29.68,West,270,5.0,8.0,27,0.00,,,0.00,,2013-11-05 00:42:00,
2013-11-04 17:52:00,74.0,39.0,29.68,WNW,295,4.0,6.0,28,0.00,,,0.00,,2013-11-05 00:52:00,
2013-11-04 18:21:00,72.0,37.0,29.69,WSW,240,3.0,5.0,28,0.00,,,0.00,,2013-11-05 01:21:00,
2013-11-04 18:52:00,70.0,41.0,29.71,NW,304,6.0,8.0,35,0.00,,,0.00,,2013-11-05 01:52:00,
2013-11-04 19:22:00,69.0,43.0,29.72,West,274,4.0,7.0,39,0.00,,,0.00,,2013-11-05 02:22:00,
2013-11-04 19:42:00,69.0,43.0,29.73,NNW,337,1.0,7.0,39,0.00,,,0.00,,2013-11-05 02:42:00,
2013-11-04 19:52:00,67.0,43.0,29.74,West,278,2.0,6.0,41,0.00,,,0.00,,2013-11-05 02:52:00,
2013-11-04 20:22:00,67.0,43.0,29.74,West,271,1.0,3.0,42,0.00,,,0.00,,2013-11-05 03:22:00,
2013-11-04 20:44:00,66.0,42.0,29.75,NW,306,7.0,11.0,42,0.00,,,0.00,,2013-11-05 03:44:00,
2013-11-04 20:54:00,66.0,43.0,29.75,NW,316,2.0,4.0,43,0.00,,,0.00,,2013-11-05 03:54:00,
2013-11-04 21:13:00,65.0,43.0,29.76,West,270,4.0,8.0,44,0.00,,,0.00,,2013-11-05 04:13:00,
2013-11-04 21:23:00,65.0,43.0,29.76,West,262,1.0,2.0,44,0.00,,,0.00,,2013-11-05 04:23:00,
2013-11-04 21:43:00,64.0,42.0,29.76,WNW,285,1.0,5.0,45,0.00,,,0.00,,2013-11-05 04:43:00,
2013-11-04 21:53:00,64.0,42.0,29.77,West,272,2.0,6.0,45,0.00,,,0.00,,2013-11-05 04:53:00,
2013-11-04 22:23:00,64.0,43.0,29.78,WNW,294,4.0,7.0,46,0.00,,,0.00,,2013-11-05 05:23:00,
2013-11-04 22:43:00,63.0,42.0,29.78,WNW,293,3.0,7.0,46,0.00,,,0.00,,2013-11-05 05:43:00,
2013-11-04 22:54:00,63.0,42.0,29.79,WNW,288,1.0,3.0,47,0.00,,,0.00,,2013-11-05 05:54:00,
2013-11-04 23:12:00,63.0,43.0,29.80,WNW,297,2.0,5.0,48,0.00,,,0.00,,2013-11-05 06:12:00,
2013-11-04 23:21:00,62.0,43.0,29.80,NW,308,1.0,3.0,50,0.00,,,0.00,,2013-11-05 06:21:00,
2013-11-04 23:42:00,62.0,43.0,29.80,West,275,1.0,3.0,50,0.00,,,0.00,,2013-11-05 06:42:00,
2013-11-04 23:52:00,61.0,42.0,29.80,NNW,333,2.0,5.0,50,0.00,,,0.00,,2013-11-05 06:52:00,